Regional Weather Roundup
Issued by NWS

Home | Current Version | Previous Version | Text Only | Print | Product List | Glossary On
Versions: 1 2 3 4 5 6 7 8 9 10 11 12 13 14 15 16 17 18 19 20 21 22 23 24 25 26 27 28 29 30 31 32 33 34 35 36 37 38 39 40 41 42 43 44 45 46 47 48 49 50
000
ASUS44 KJAN 241420
RWRMS

MISSISSIPPI HOURLY WEATHER ROUNDUP
NATIONAL WEATHER SERVICE JACKSON MS
900 AM CDT WED AUG 24 2016

NOTE: "FAIR: INDICATES FEW OR NO CLOUDS BELOW 12,000 FEET WITH NO
SIGNIFICANT WEATHER AND/OR OBSTRUCTIONS TO VISIBILITY.

MSZ001>002-007>008-010>013-018>021-025>028-034>036-241500-
NORTHWEST MISSISSIPPI

CITY           SKY/WX    TMP DP  RH WIND       PRES   REMARKS
CLARKSDALE     SUNNY     84  81  89 CALM      30.17S HX  98
CLEVELAND      FAIR      82  80  91 S3        30.17R HX  94
GREENWOOD      SUNNY     83  74  74 SW5       30.18R
GREENVILLE     SUNNY     83  75  77 S3        30.16R HX  90
OLIVE BRANCH   MOSUNNY  N/A N/A N/A SW7       30.17
OXFORD         FAIR      82  72  69 SW6       30.22S
TUNICA         SUNNY     82  77  83 S6        30.17F HX  91
WINONA         FAIR      82  75  81 CALM      30.19S
$$

MSZ003>006-009-014>017-022>024-029>033-037>039-241500-
NORTHEAST MISSISSIPPI

CITY           SKY/WX    TMP DP  RH WIND       PRES   REMARKS
ABERDEEN       FAIR      84  66  54 S3        30.22S HAZE
COLUMBUS AFB   SUNNY     84  77  79 VRB3      30.20R HX  94
CORINTH        FAIR      82  73  74 VRB3      30.20S
GOLDN TRIANGLE SUNNY     82  70  65 CALM      30.20R
TUPELO         SUNNY     83  74  74 SE5       30.21R
$$

MSZ040-058-241500-
CENTRAL MISSISSIPPI

CITY           SKY/WX    TMP DP  RH WIND       PRES   REMARKS
JACKSON INTL   SUNNY     83  75  77 CALM      30.19R HX  90
JACKSON HAWKNS SUNNY     84  75  74 E3        30.19R HX  92
MERIDIAN KEY   SUNNY     87  75  67 VRB3      30.20R HX  96
MERIDIAN NAS   SUNNY     84  74  71 SE6       30.20S HX  91
$$

MSZ059>079-241500-
SOUTH MISSISSIPPI

CITY           SKY/WX    TMP DP  RH WIND       PRES   REMARKS
BROOKHAVEN     FAIR     N/A N/A N/A CALM      30.20S
COLUMBIA       FAIR      82  77  83 CALM      30.21F HX  91
HATTIESBURG    SUNNY     83  76  79 CALM      30.19S HX  91
LAUREL         FAIR      81  80  97 CALM      30.19R HX  93
MCCOMB         SUNNY     83  74  74 CALM      30.19R
NATCHEZ        SUNNY     82  75  78 N3        30.18R
PINE BELT      SUNNY    N/A N/A N/A CALM      30.20S
$$

MSZ080>082-241500-
COASTAL MISSISSIPPI

CITY           SKY/WX    TMP DP  RH WIND       PRES   REMARKS
BAY ST LOUIS   SUNNY     84  72  65 VRB5      30.17R
BILOXI         MOSUNNY   86  77  76 N5        30.15S HX  97
PASCAGOULA     SUNNY     87  79  76 N6        30.16S HX 101
GULFPORT       SUNNY     82  77  84 N5        30.16R HX  90
$$

LAZ007>009-015>016-023>026-241500-
NORTHEAST LOUISIANA

CITY           SKY/WX    TMP DP  RH WIND       PRES   REMARKS
BASTROP        FAIR      83  77  82 W3        30.16S HX  93
TALLULAH/VBURG SUNNY     84  76  76 CALM      30.17S HX  93
VIDALIA        FAIR      82  77  85 NW3       30.20R
$$



USA.gov is the U.S. government's official web portal to all federal, state and local government web resources and services.